Location: ????????
(48.4751°N, 37.6926°E)
Time: 12:49:38
(UTC+00:00)

Cosmos 2228 - Pass Details

Date: 20 January 2021
Orbit: 589 x 617 km, 82.5° (Epoch: 27 February)

Event Time Altitude Azimuth Distance (km) Brightness Sun altitude
Rises 15:25:11 0° 347° (NNW) 2,839 6.4 -12.4°
Reaches altitude 10° 15:27:25 10° 343° (NNW) 1,935 5.6 -12.7°
Maximum altitude 15:31:37 59° 265° (W) 689 3.6 -13.4°
Drops below altitude 10° 15:35:49 10° 186° (S) 1,932 5.8 -14.1°
Sets 15:38:02 0° 182° (S) 2,833 6.7 -14.4°
